N1DNE Weather Reports


Display with metric or nautical units.
time (UTC)temp
F
wind
direction
speed
MPH
gust
MPH
rain 1hr
in
rain 24hr
in
rain mn
in
humidity
%
barometer
mb
20260507164203 58 20 2.0 7.0 0.00 0.23 0.05 45 1007.4
20260507163203 57 92 2.0 8.0 0.00 0.23 0.05 47 1007.4
20260507163122 57 347 3.0 8.0 0.00 0.23 0.05 45 1007.5
20260507161201 57 5 3.0 10.0 0.00 0.23 0.05 46 1007.7
20260507160647 56 316 3.0 10.0 0.00 0.23 0.05 49 1007.7
20260507155203 56 18 3.0 11.0 0.00 0.23 0.05 49 1007.7
20260507154204 56 340 2.0 6.0 0.00 0.23 0.05 48 1008.0
20260507153202 55 338 2.0 5.0 0.00 0.23 0.05 47 1008.1
20260507152203 55 340 2.0 6.0 0.00 0.23 0.05 51 1008.1
20260507151157 55 324 1.0 4.0 0.00 0.23 0.05 54 1008.1
20260507150156 55 313 1.0 5.0 0.00 0.23 0.05 53 1008.2
20260507145638 54 49 2.0 6.0 0.00 0.23 0.05 51 1008.1
20260507144156 54 336 2.0 7.0 0.00 0.23 0.05 52 1008.2
20260507143633 54 344 2.0 5.0 0.00 0.23 0.05 53 1008.3
20260507142156 54 223 2.0 9.0 0.00 0.23 0.05 56 1008.3
20260507141154 53 329 2.0 6.0 0.00 0.23 0.05 60 1008.4
20260507140156 53 178 2.0 5.0 0.00 0.23 0.05 59 1008.3
20260507135158 52 260 2.0 8.0 0.00 0.23 0.05 63 1008.3
20260507134150 52 291 2.0 7.0 0.00 0.23 0.05 63 1008.3
20260507133148 51 276 1.0 3.0 0.00 0.23 0.05 62 1008.3
20260507132151 51 276 2.0 5.0 0.00 0.23 0.05 65 1008.4
20260507131633 51 5 1.0 6.0 0.00 0.23 0.05 67 1008.3
20260507130147 51 344 2.0 5.0 0.00 0.23 0.05 66 1008.1
20260507125148 50 266 2.0 5.0 0.00 0.23 0.05 71 1008.2
20260507125104 50 325 2.0 6.0 0.00 0.23 0.05 69 1008.2
20260507123147 50 318 2.0 5.0 0.00 0.23 0.05 70 1008.2
20260507122147 49 294 2.0 8.0 0.00 0.23 0.05 72 1008.2
20260507121144 49 335 3.0 9.0 0.00 0.23 0.05 73 1008.1
20260507120143 49 333 2.0 7.0 0.00 0.23 0.05 81 1008.0
20260507115142 48 342 3.0 9.0 0.00 0.23 0.05 84 1007.9
20260507114144 47 333 2.0 5.0 0.00 0.23 0.05 85 1008.0
20260507113143 47 14 2.0 6.0 0.00 0.23 0.05 89 1007.9
20260507112144 47 333 1.0 6.0 0.00 0.23 0.05 92 1007.9
20260507111144 47 271 0.0 1.0 0.00 0.23 0.05 93 1007.8
20260507110144 47 271 0.0 3.0 0.00 0.23 0.05 93 1007.6
20260507105146 47 271 1.0 3.0 0.00 0.23 0.05 93 1007.5
20260507104142 47 260 1.0 5.0 0.00 0.23 0.05 93 1007.3
20260507103144 47 27 1.0 5.0 0.00 0.23 0.05 94 1007.1
20260507102143 47 96 1.0 3.0 0.00 0.23 0.05 94 1007.0
20260507101144 47 43 1.0 6.0 0.00 0.23 0.05 94 1006.8
20260507100144 48 80 1.0 3.0 0.00 0.23 0.05 94 1006.7
20260507095143 48 76 0.0 2.0 0.00 0.23 0.05 95 1006.8
20260507094143 48 76 0.0 1.0 0.01 0.23 0.05 95 1006.8
20260507093144 48 76 0.0 3.0 0.01 0.23 0.05 95 1007.0
20260507092143 48 33 0.0 1.0 0.01 0.23 0.05 95 1006.7
20260507091143 48 33 0.0 2.0 0.02 0.23 0.05 95 1006.3
20260507090144 49 33 0.0 2.0 0.02 0.23 0.05 95 1006.5
20260507085143 49 32 0.0 1.0 0.03 0.23 0.05 94 1006.6
20260507084145 49 23 0.0 2.0 0.02 0.22 0.04 94 1006.8
20260507083138 49 23 0.0 1.0 0.02 0.22 0.04 94 1006.7
20260507082138 49 23 0.0 1.0 0.03 0.22 0.04 94 1006.9
20260507081620 49 23 0.0 3.0 0.02 0.21 0.03 94 1006.5
20260507080137 49 72 0.0 0.0 0.02 0.21 0.03 94 1006.8
20260507075138 49 72 0.0 0.0 0.01 0.20 0.02 94 1007.3
20260507074137 49 72 0.0 0.0 0.01 0.20 0.02 94 1007.1
20260507073136 49 72 0.0 1.0 0.02 0.20 0.02 93 1006.9
20260507072136 49 72 0.0 4.0 0.01 0.19 0.02 93 1006.9
20260507071137 49 0 0.0 2.0 0.01 0.19 0.01 93 1006.9
20260507070131 49 0 1.0 3.0 0.01 0.19 0.01 93 1006.8
20260507065131 49 11 1.0 3.0 0.01 0.19 0.01 93 1006.6
20260507065051 50 20 1.0 5.0 0.01 0.19 0.01 93 1006.6
20260507063130 50 34 1.0 2.0 0.00 0.18 0.00 93 1006.5
20260507062131 50 38 0.0 2.0 0.00 0.18 0.00 93 1006.4
20260507061621 50 29 0.0 2.0 0.00 0.18 0.00 93 1006.0
20260507060130 50 74 0.0 4.0 0.00 0.18 0.00 93 1006.0
20260507055132 51 73 1.0 4.0 0.00 0.18 0.00 93 1006.0
20260507054609 51 349 1.0 4.0 0.00 0.18 0.00 93 1006.4
20260507053125 51 9 1.0 4.0 0.00 0.18 0.00 94 1006.5
20260507052125 51 30 0.0 2.0 0.00 0.18 0.00 94 1006.6
20260507051124 51 32 0.0 0.0 0.00 0.18 0.00 94 1006.6
20260507050125 51 32 0.0 0.0 0.00 0.18 0.00 94 1006.6
20260507045615 52 32 0.0 0.0 0.00 0.18 0.00 94 1006.8
20260507044124 52 32 0.0 1.0 0.00 0.18 0.00 94 1007.0
20260507043124 52 32 0.0 2.0 0.00 0.18 0.00 94 1006.9
20260507042125 52 32 0.0 1.0 0.00 0.18 0.00 94 1006.7
20260507041127 52 32 0.0 1.0 0.00 0.18 0.00 94 1006.5
20260507040122 52 32 0.0 1.0 0.01 0.18 0.00 94 1006.3
20260507035123 52 32 0.0 2.0 0.01 0.18 0.18 94 1006.3
20260507034123 53 35 0.0 2.0 0.01 0.18 0.18 94 1006.5
20260507033123 53 32 0.0 2.0 0.01 0.18 0.18 94 1006.5
20260507032123 53 32 0.0 3.0 0.01 0.18 0.18 94 1006.4
20260507031124 53 38 0.0 1.0 0.02 0.18 0.18 94 1006.3
20260507030602 54 38 0.0 2.0 0.02 0.17 0.17 94 1006.5
20260507025123 54 25 0.0 3.0 0.04 0.17 0.17 94 1006.5
20260507024123 54 25 0.0 3.0 0.04 0.17 0.17 94 1006.3
20260507023122 54 158 0.0 4.0 0.04 0.17 0.17 94 1006.3
20260507022122 55 16 1.0 4.0 0.04 0.17 0.17 94 1006.3
20260507021123 56 74 1.0 4.0 0.03 0.16 0.16 94 1006.1
20260507020121 57 51 1.0 5.0 0.02 0.15 0.15 94 1006.0
20260507015122 59 355 1.0 7.0 0.00 0.13 0.13 95 1006.0
20260507014122 59 185 0.0 1.0 0.00 0.13 0.13 95 1005.5
20260507013553 59 185 0.0 1.0 0.00 0.13 0.13 95 1005.1
20260507012121 59 185 1.0 3.0 0.00 0.13 0.13 95 1005.0
20260507011551 59 185 0.0 0.0 0.00 0.13 0.13 95 1005.2
20260507010115 59 185 0.0 1.0 0.00 0.13 0.13 95 1004.8
20260507005117 59 185 0.0 2.0 0.00 0.13 0.13 95 1004.8
20260507004115 59 185 0.0 1.0 0.00 0.13 0.13 95 1004.8
20260507003114 59 185 0.0 1.0 0.00 0.13 0.13 95 1005.0
20260507002116 59 185 0.0 1.0 0.00 0.13 0.13 95 1004.5
20260507001558 59 185 0.0 2.0 0.00 0.13 0.13 95 1004.7
20260507000113 59 185 0.0 3.0 0.00 0.13 0.13 95 1004.9
20260506235116 59 185 0.0 1.0 0.00 0.13 0.13 95 1004.9
20260506234108 59 185 0.0 1.0 0.00 0.13 0.13 95 1004.7
20260506233108 59 185 0.0 4.0 0.00 0.13 0.13 95 1004.7
20260506232108 59 185 0.0 2.0 0.00 0.13 0.13 95 1004.7
20260506231108 59 185 0.0 3.0 0.00 0.13 0.13 95 1004.5
20260506230550 59 185 0.0 2.0 0.00 0.13 0.13 95 1004.4
20260506225109 59 185 0.0 3.0 0.00 0.13 0.13 95 1004.3
20260506224108 59 185 0.0 4.0 0.00 0.13 0.13 95 1004.3
20260506224047 59 185 0.0 2.0 0.01 0.13 0.13 95 1004.3
20260506222110 59 185 0.0 3.0 0.01 0.13 0.13 95 1004.2
20260506221103 59 185 0.0 2.0 0.01 0.13 0.13 95 1004.2
20260506215103 59 185 0.0 3.0 0.01 0.13 0.13 95 1004.3
20260506214102 59 185 0.0 3.0 0.01 0.13 0.13 95 1004.2
20260506213101 59 185 0.0 4.0 0.01 0.12 0.12 95 1004.2
20260506212058 59 185 1.0 3.0 0.01 0.12 0.12 94 1004.3
20260506211057 59 185 0.0 3.0 0.02 0.12 0.12 94 1004.3
20260506210057 60 185 0.0 3.0 0.03 0.12 0.12 95 1004.3
20260506205055 59 185 1.0 3.0 0.04 0.12 0.12 94 1004.5
20260506204058 60 106 0.0 2.0 0.05 0.12 0.12 95 1004.8
20260506203056 60 106 0.0 2.0 0.04 0.11 0.11 94 1004.8
20260506202535 60 101 0.0 3.0 0.05 0.11 0.11 94 1004.8
20260506201537 60 170 0.0 2.0 0.04 0.10 0.10 94 1004.8
20260506200056 60 170 1.0 4.0 0.03 0.09 0.09 94 1004.8
20260506195542 60 171 1.0 5.0 0.02 0.08 0.08 94 1005.0
20260506194054 60 170 0.0 2.0 0.01 0.07 0.07 94 1005.0
20260506193054 60 170 0.0 4.0 0.02 0.07 0.07 94 1005.1
20260506192054 59 171 1.0 5.0 0.02 0.06 0.06 94 1005.2
20260506191055 59 171 1.0 6.0 0.03 0.06 0.06 94 1005.4
20260506190551 59 170 1.0 6.0 0.03 0.06 0.06 93 1005.3
20260506190018 59 188 1.0 6.0 0.03 0.06 0.06 93 1005.5
20260506184054 59 278 1.0 5.0 0.04 0.06 0.06 93 1005.5
20260506183529 60 182 1.0 6.0 0.04 0.05 0.05 93 1005.7
20260506182533 60 180 1.0 4.0 0.03 0.04 0.04 92 1005.8
20260506181049 60 234 1.0 4.0 0.03 0.03 0.04 92 1005.8
20260506181003 60 189 1.0 2.0 0.03 0.03 0.03 91 1005.7
20260506175049 61 189 1.0 4.0 0.03 0.03 0.03 90 1005.8
20260506174047 62 194 1.0 4.0 0.02 0.02 0.02 90 1005.8
20260506173048 62 170 1.0 5.0 0.01 0.01 0.01 88 1005.9
20260506172536 63 170 1.0 7.0 0.01 0.01 0.01 86 1006.4
20260506171527 64 170 1.0 4.0 0.00 0.00 0.00 84 1006.8
20260506170046 65 170 1.0 6.0 0.00 0.00 0.00 83 1006.9
20260506165043 66 166 0.0 3.0 0.00 0.00 0.00 81 1006.8
20260506165002 66 158 2.0 8.0 0.00 0.00 0.00 78 1006.9